Preview of NWS' New Version of Forecast
This preview is not operational and should not be used for support decisions.

Regional Weather Roundup (RWR)

Issued by Gray - Portland, ME (GYX)

                            
000
ASUS41 KGYX 202310
RWRGYX
WEATHER ROUNDUP FOR MAINE AND NEW HAMPSHIRE
NATIONAL WEATHER SERVICE GRAY ME
700 PM EDT SAT APR 20 2019

MEZ002-005-006-010-012-015-018-020-021-024-026-027-029-210000-
MAINE
  
CITY           SKY/WX    TMP DP  RH WIND       PRES   REMARKS
PORTLAND       FOG       55  53  93 S10       29.95S VSB 1            
SANFORD        CLOUDY    62  60  93 SE8       29.92F                  
BAR HARBOR     CLOUDY    53  52  96 SW16      30.06R FOG              
WISCASSET      CLOUDY    53  52  96 S5        30.01R FOG              
ROCKLAND       LGT RAIN  52  51  97 S6        30.02R FOG              
FRYEBURG       FAIR      61  60  97 SE6       29.92S                  
LEWISTONAUBURN   N/A     57  57 100 SE13      29.95F FOG              
AUGUSTA        LGT RAIN  58  58 100 S9        29.98R FOG              
WATERVILLE     LGT RAIN  47  47 100 CALM      29.98R FOG              
BANGOR         LGT RAIN  48  48 100 CALM      30.02R VSB 3/4          
GREENVILLE       N/A     41  40  96 SE3       29.97R                  
MILLINOCKET    LGT RAIN  42  40  92 NE5       30.05R FOG              
HOULTON        LGT RAIN  40  38  93 VRB3      30.06F                  
PRESQUE ISLE   CLOUDY    41  40  96 SE6       30.09R                  
FRENCHVILLE    CLOUDY    41  37  86 E7G17     30.06S FOG              
CARIBOU        CLOUDY    41  38  89 VRB5      30.08R                  
$$

NHZ002-005-008-009-011-012-014-210000-
NEW HAMPSHIRE
  
CITY           SKY/WX    TMP DP  RH WIND       PRES   REMARKS
PORTSMOUTH     MOCLDY    62  60  93 SE15      29.89F                  
ROCHESTER      FAIR      61  60  97 SE9       29.89F                  
NASHUA         CLOUDY    66  64  94 SE10G18   29.89R THUNDER          
MANCHESTER     LGT RAIN  68  62  81 S16G24    29.87S                  
CONCORD        MOCLDY    67  61  81 S10       29.87F                  
LACONIA        CLOUDY    68  61  78 SE8       29.88S                  
PLYMOUTH       CLOUDY    63  61  93 CALM      29.87R                  
BERLIN         MOCLDY    59  58  96 S6        29.88R                  
WHITEFIELD     CLOUDY    64  59  83 CALM      29.85R                  
JAFFREY        CLOUDY    67  59  75 S8G25     29.88R                  
KEENE          CLOUDY    68  61  78 S10       29.85R                  
LEBANON        CLOUDY    69  59  70 S14G23    29.80S                  
MT WASHINGTON  LGT RAIN  46  46 100 S41G64      N/A  VSB 1/16         
$$

VTZ005-007-008-210000-
VERMONT
  
CITY           SKY/WX    TMP DP  RH WIND       PRES   REMARKS
ST JOHNSBURY     N/A     58  58 100 MISG      29.81S                  
MONTPELIER     CLOUDY    61  58  90 VRB5      29.84S                  
BURLINGTON     FOG       45  43  93 W5        29.79R VSB 1/4          
$$

MAZ007-012-024-CTZ003-RIZ002-NYZ038-NYZ072-210000-
SOUTHERN NEW ENGLAND AND NY
  
CITY           SKY/WX    TMP DP  RH WIND       PRES   REMARKS
BOSTON         LGT RAIN  66  61  84 S10       29.93S                  
WORCESTER      LGT RAIN  62  61  96 S14       29.90S                  
NANTUCKET      CLOUDY    54  53  97 SE20      29.99S FOG              
PROVIDENCE     RAIN      57  57 100 S7        29.93S FOG              
HARTFORD       CLOUDY    64  61  90 S13       29.84S                  
ALBANY         CLOUDY    69  53  56 S21G36    29.74R                  
NEW YORK CITY  CLOUDY    58  48  69 S16G25    29.80R                  
$$

ANZ081-ANZ082-ANZ150-NHZ014-MEZ023>029-210000-
COASTAL MARINE OBSERVATIONS
  
STATION/POSITION TIME  TEMP    WIND        PRES    WAVE
                       AIR SEA DIR/SP/G            HT/PER
                 (UTC) (F)     (DEG/KT/KT) (MB)    (FT/S)
ISLE OF SHOALS   2300   54     170/ 19/ 23 1012.8F
CASHES LEDGE BUO 2250   49 42              1015.9R   9/ 9
$$

.............KEY..............
   WCI - WIND CHILL
   TC  - TEMPERATURE IN CELSIUS
   VSB - VISIBILITY IN MILES
   HX  - HEAT INDEX
   FAIR- INDICATES FEW OR NO CLOUDS BELOW 12,000 FT, WITH NO 
         SIGNIFICANT WEATHER AND/OR OBSTRUCTIONS TO VISIBILITY.